Location: Boomen
(51.4196°N, 5.6932°E)
Time: 17:28:26
(UTC+00:00)

Daily predictions for brighter satellites

Satellite Brightness Start Highest point End
(mag) Time Altitude Azimuth Time Altitude Azimuth Time Altitude Azimuth
ATLAS 3B R/B 3.7 20:34:16 10° SSE 20:39:12 23° ESE 20:44:14 10° ENE
SPOT 1/Viking Rocket 3.7 20:35:35 10° SSE 20:40:44 79° WSW 20:45:55 10° NNW
Geosat 4.1 20:38:14 10° SE 20:43:16 87° ENE 20:48:20 10° NNW
Cosmos 1544 Rocket 4.1 20:39:12 10° N 20:43:34 48° ENE 20:47:52 10° SSE
CZ-2C R/B 3.8 20:39:27 10° NNE 20:44:15 77° ESE 20:49:02 10° S
Okean 1 Rocket 4.4 20:42:09 10° NNW 20:46:12 37° W 20:50:14 10° SSW
Spot 2 Rocket 3.6 20:41:37 10° SSE 20:46:42 86° ENE 20:51:49 10° NNW
Cosmos 2173 Rocket 4.2 20:40:25 10° N 20:46:49 73° ENE 20:53:11 10° SSE
Cosmos 1707 3.3 20:44:06 10° SSW 20:47:56 63° WNW 20:51:50 10° N
Cosmos 1455 Rocket 3.1 20:43:59 10° N 20:48:29 83° E 20:52:56 10° SSE
Lacrosse 5 rocket 2.4 20:46:08 10° S 20:48:48 19° SE 20:51:26 10° E
Cosmos 2016 Rocket 4.3 20:43:56 10° N 20:49:55 53° ENE 20:55:52 10° SSE
ERS-1 Rocket 3.1 20:45:13 10° SSE 20:50:12 66° ENE 20:55:14 10° N
In-Cosmos 22 4.1 20:45:38 10° S 20:50:55 84° E 20:56:15 10° NNE
BREEZE-M DEB (TANK) 3.1 20:58:35 10° S 21:00:40 20° SE 21:04:00 10° E
USA 215 4.4 20:56:01 10° ENE 21:00:44 21° SE 21:05:25 10° S
SL-23 DEB 4.2 20:58:09 10° W 21:01:51 89° N 21:07:58 10° E
Cosmos 1725 Rocket 4.3 20:55:59 10° N 21:02:04 56° ENE 21:08:08 10° SSE
Cosmos 2333 Rocket 3.1 20:57:10 10° SSE 21:02:05 30° ESE 21:07:00 10° NE
Cosmos 1727 Rocket 4.3 20:56:10 10° SSW 21:02:29 77° WNW 21:08:47 10° N
Cosmos 1953 2.6 21:01:39 10° NNW 21:05:42 69° W 21:09:44 10° S
Cosmos 1626 2.3 21:04:46 10° S 21:08:21 54° E 21:11:59 10° NNE
USA 238 DEB 4.3 21:03:20 10° WSW 21:09:55 63° NW 21:16:54 10° NE
USA 238 4.3 21:03:26 10° WSW 21:10:01 64° NW 21:17:00 10° NE
Cosmos 1844 3.8 21:05:39 10° NNW 21:11:14 78° WSW 21:16:41 11° SSE
SL-14 R/B 3.9 21:08:42 10° SSE 21:12:29 41° E 21:16:17 10° NNE
Cosmos 2219 Rocket 3.1 21:08:14 10° SSE 21:13:09 31° ESE 21:18:05 10° NE
Cosmos 1867 4.2 21:09:53 10° NW 21:15:16 52° NE 21:20:37 10° ESE
Cosmos 1802 Rocket 4.1 21:10:43 10° N 21:17:01 89° W 21:23:21 10° S
CENTAUR R/B 3.4 21:11:51 10° WSW 21:18:03 61° NW 21:25:30 10° NE
Cosmos 1536 Rocket 4.1 21:15:05 10° SSE 21:19:13 43° E 21:23:27 10° NNE
CZ-4B DEB 4.3 21:19:02 13° SSE 21:21:46 72° ENE 21:24:57 10° N
DNEPR-1 R/B 3.5 21:18:29 10° NW 21:22:45 87° SW 21:26:37 13° SE
NOSS 8 (A) 4.4 21:22:27 10° SW 21:25:37 69° NW 21:28:31 10° NE
Meteor 1-24 Rocket 4.4 21:21:06 12° SSE 21:25:38 37° E 21:30:38 10° NNE
Cosmos 389 Rocket 4.0 21:24:49 10° N 21:27:42 25° ENE 21:30:14 12° ESE
Cosmos 1025 Rocket 3.0 21:23:36 10° S 21:27:59 89° ESE 21:32:23 10° N
Aureole 1 Rocket 4.5 21:23:06 10° NNW 21:28:40 58° WSW 21:35:47 10° S
Cosmos 2237 Rocket 4.0 21:27:26 10° SE 21:30:07 14° E 21:32:49 10° ENE
Cosmos 1459 Rocket 4.4 21:25:17 10° NNW 21:31:14 60° W 21:37:10 10° S
Cosmos 1461 4.1 21:29:02 10° WNW 21:32:47 31° WSW 21:36:05 11° S
Cosmos 2228 3.9 21:29:21 10° N 21:33:30 38° ENE 21:36:56 14° SE
Resurs 01 Rocket 4.2 21:31:40 10° WSW 21:34:11 15° W 21:36:42 10° NW
Cosmos 2360 Rocket 2.3 21:29:38 10° SSW 21:35:18 86° WNW 21:41:00 10° NNE
SL-16 R/B 3.3 21:29:57 10° SW 21:35:24 47° NW 21:40:55 10° NNE
USA 267 3.6 21:30:33 10° ESE 21:37:04 71° NNE 21:43:35 10° WNW
Cosmos 2322 Rocket 3.0 21:31:49 10° SW 21:37:26 56° NW 21:43:04 10° NNE
Cosmos 1486 Rocket 4.3 21:35:38 10° NNW 21:40:48 58° ENE 21:45:12 14° SE
Cosmos 1975 Rocket 4.4 21:37:54 10° SW 21:42:00 39° WNW 21:46:10 10° N
Cosmos 1455 3.9 21:39:54 10° NNE 21:43:01 23° ENE 21:45:44 12° ESE
Cosmos 1674 4.2 21:40:38 10° SW 21:44:03 34° WNW 21:47:30 10° N
ATLAS CENTAUR R/B 1.8 21:40:42 10° NW 21:44:55 58° SW 21:48:22 16° SSE
Cosmos 1110 Rocket 4.2 21:40:41 10° SSW 21:45:51 74° WNW 21:51:07 10° NNE
SPOT 5 3.8 21:41:50 10° S 21:46:45 44° W 21:51:28 10° NNW
Cosmos 968 Rocket 3.5 21:44:14 10° NNW 21:49:23 84° ENE 21:53:28 16° SSE
Cosmos 1300 2.9 21:47:42 10° NNW 21:51:31 69° W 21:54:30 16° S
Cosmos 2061 Rocket 4.4 21:46:44 10° NNW 21:53:06 65° W 21:59:13 11° S
Terra 2.5 21:49:22 12° S 21:53:44 50° W 21:58:23 10° NNW
COSMOS 2428 3.0 21:48:21 10° S 21:53:46 50° ESE 21:59:18 10° NE
Cosmos 2322 3.7 21:49:55 10° SSW 21:55:31 70° ESE 22:01:11 10° NNE
FALCON 9 DEB 4.0 21:54:51 21° SSE 21:55:34 23° SE 21:58:08 10° E
SL-24 R/B 4.4 21:52:18 10° N 21:57:13 89° W 22:01:30 13° S
OPS 8737 4.2 21:55:09 10° SW 21:58:57 72° SE 22:01:58 10° NE
Cosmos 405 3.8 21:55:53 10° NNW 21:59:11 42° W 22:01:49 14° SSW
Cosmos 2278 Rocket 2.5 21:53:34 10° NNW 21:59:13 62° NE 22:04:01 14° SE
ATLAS CENTAUR R/B 4.4 21:59:32 14° SE 22:02:41 20° E 22:09:54 10° ENE
Cosmos 2058 Rocket 4.2 22:00:08 10° N 22:04:12 33° ENE 22:07:18 15° SE
Cosmos 2123 Rocket 4.3 22:00:04 10° SSW 22:06:21 69° WNW 22:12:42 10° N
Cosmos 1844 Rocket 4.2 22:03:03 10° NW 22:07:45 27° WSW 22:12:26 10° SSW
Cosmos 1340 3.5 22:07:11 10° SSW 22:10:51 48° WNW 22:14:32 10° N
Cosmos 1726 Rocket 3.9 22:07:27 10° N 22:11:54 59° ENE 22:14:53 20° SSE
H-2A R/B 3.8 22:08:01 10° N 22:12:04 62° WNW 22:16:06 10° SSW
Cosmos 2233 Rocket 4.1 22:06:03 10° NNW 22:12:13 74° W 22:17:17 16° S
Cosmos 1346 Rocket 3.0 22:11:16 20° S 22:13:52 58° E 22:17:51 10° NNE
FALCON 9 DEB 3.0 22:11:07 10° WSW 22:14:32 83° SSE 22:17:57 10° ENE
GEOS 3 Rocket 3.7 22:11:18 17° SE 22:15:33 75° SW 22:20:56 10° NW
FALCON 9 DEB 3.3 22:13:07 10° SW 22:16:02 39° SSE 22:18:57 10° E
FALCON 9 DEB 3.5 22:18:01 18° SSW 22:19:52 34° SSE 22:22:45 10° E
Cosmos 1447 Rocket 4.5 22:15:10 15° S 22:20:24 79° E 22:26:36 10° NNE
NOSS 0 Rocket 4.4 22:16:43 17° S 22:21:07 43° ESE 22:26:58 10° NE
SL-4 R/B 3.7 22:22:18 15° ESE 22:22:18 15° ESE 22:23:35 10° E
Meteor 2-5 Rocket 4.0 22:19:00 10° SSW 22:24:30 67° WNW 22:30:07 10° N
FALCON 9 DEB 3.1 22:22:30 10° SW 22:25:28 43° SSE 22:28:26 10° E
Cosmos 1606 Rocket 3.6 22:21:49 10° NNW 22:26:20 83° W 22:29:16 21° S
Lacrosse 5 rocket 1.0 22:23:52 10° WSW 22:27:30 85° NNW 22:31:06 10° ENE
ATLAS 3B R/B 2.6 22:22:26 10° SW 22:29:01 88° SE 22:35:53 10° NE
SJ 16-02 3.4 22:26:36 10° N 22:29:58 21° NE 22:33:20 10° E
Cosmos 1892 Rocket 3.9 22:29:32 22° SSE 22:32:10 52° E 22:36:31 10° NNE
ALOS 2 2.9 22:32:40 20° SE 22:35:33 58° ENE 22:39:53 10° N
Meteor 2-1 Rocket 4.4 22:32:50 10° N 22:38:20 65° ENE 22:42:13 20° SSE
Cosmos 1943 Rocket 3.6 22:33:45 10° NNW 22:38:41 32° NE 22:43:37 10° ESE
Cosmos 1980 4.1 22:36:00 20° S 22:39:39 46° ESE 22:45:04 10° NE
Cosmos 1441 Rocket 4.3 22:38:21 21° SE 22:40:03 31° E 22:43:27 10° NNE
Cosmos 1503 Rocket 4.1 22:34:49 10° NNW 22:40:14 84° WSW 22:43:52 21° SSE
Cosmos 1703 4.2 22:39:40 22° SE 22:41:32 35° E 22:45:09 10° NNE
Spot 4 3.9 22:39:08 22° S 22:42:17 76° WSW 22:47:05 10° NNW
USA 215 3.3 22:38:10 10° ENE 22:44:40 62° SE 22:51:08 10° SW
Cosmos 2333 Rocket 2.8 22:40:23 10° SW 22:46:04 58° NW 22:51:44 10° NNE
Meteor 2-10 Rocket 4.3 22:46:32 10° NNW 22:51:20 41° W 22:54:49 17° SSW
Cosmos 2219 Rocket 2.8 22:51:16 10° SW 22:56:50 56° NW 23:02:27 10° NNE
Cosmos 1464 Rocket 4.1 22:51:10 10° N 22:57:33 87° W 23:02:03 21° S
Cosmos 1867 4.3 22:53:43 10° NW 22:58:48 40° WSW 23:01:49 22° S
Cosmos 1607 4.0 22:54:14 10° NW 23:00:38 67° SW 23:05:04 20° SSE
Cosmos 389 Rocket 4.0 22:59:25 10° NW 23:02:18 25° W 23:04:01 17° SW
Cosmos 1626 Rocket 4.4 22:59:58 22° SSE 23:02:18 39° E 23:06:27 10° NNE
Iridium 2 4.3 23:05:20 21° SSW 23:07:36 48° W 23:11:15 10° N
COBE Rocket 4.1 23:04:31 23° S 23:07:41 64° W 23:12:36 10° NNW
SL-16 R/B 3.3 23:06:17 19° SSE 23:09:06 29° ESE 23:13:53 10° NE
Cosmos 2237 Rocket 2.2 23:09:09 19° SSW 23:13:12 74° ESE 23:18:49 10° NNE
MTI 4.0 23:10:18 10° NNE 23:13:17 50° E 23:14:12 35° SSE
Meteor 1-4 Rocket 2.6 23:11:41 10° N 23:15:10 65° ENE 23:16:45 29° SSE
Cosmos 1455 3.3 23:15:11 10° NNW 23:18:42 35° W 23:20:36 21° SW
Cosmos 2360 Rocket 4.5 23:15:40 10° W 23:20:08 23° NW 23:24:37 10° NNE
USA 267 3.4 23:14:47 15° SE 23:20:13 58° SW 23:26:41 10° WNW
Cosmos 2369 Rocket 3.6 23:15:57 10° NNW 23:21:14 36° NE 23:26:29 10° ESE
Cosmos 1184 Rocket 3.2 23:22:45 27° SW 23:24:17 54° WNW 23:27:29 10° N
Cosmos 1777 Rocket 4.0 23:24:47 10° NNW 23:30:05 76° WSW 23:33:25 23° SSE
Okean 1-7 Rocket 3.7 23:27:36 24° SSW 23:30:16 74° WNW 23:34:45 10° N
Cosmos-2242 4.0 23:26:14 10° N 23:30:26 42° ENE 23:33:23 18° SE
FALCON 9 DEB 2.7 23:27:52 10° WSW 23:31:00 87° SSE 23:34:09 10° ENE
Cosmos 2034 Rocket 4.1 23:25:28 10° NNW 23:31:38 71° W 23:35:44 22° S
Meteor 1-21 Rocket 4.4 23:33:20 20° SSW 23:37:19 71° WNW 23:43:04 10° N
COSMOS 2428 4.0 23:32:53 10° WSW 23:38:14 38° NW 23:43:36 10° NNE
Cosmos 2058 Rocket 4.3 23:38:12 10° NNW 23:42:09 31° W 23:44:34 19° SW
Cosmos 2297 3.7 23:36:37 10° NNW 23:42:17 89° WSW 23:46:30 19° SSE
Cosmos 192 4.5 23:38:55 19° SSW 23:42:26 73° WNW 23:47:23 10° NNE
Cosmos 1812 Rocket 3.5 23:38:28 10° N 23:42:51 87° E 23:45:17 26° S
Cosmos 2278 Rocket 3.4 23:38:13 10° NW 23:42:55 27° WSW 23:45:51 18° SSW
Meteor 1-27 4.5 23:40:46 10° N 23:46:19 64° ENE 23:50:25 18° SSE
Cosmos 724 4.4 23:40:11 10° NW 23:46:22 71° SW 23:50:57 18° SSE
Meteor 1-11 4.3 23:44:20 23° S 23:47:53 67° E 23:53:25 10° NNE
FALCON 9 DEB 3.5 23:48:08 10° W 23:51:32 65° N 23:54:55 10° E
FALCON 9 DEB 3.1 23:48:27 10° W 23:51:33 71° N 23:54:38 10° ENE
FALCON 9 DEB 3.0 23:52:18 10° W 23:55:25 75° NNW 23:58:33 10° ENE
